Weather in Hrolin

Ukraine / Khmelnitsky District     50°09′38″N   27°15′08″E
temp.,
°C
wind,
m/s
gust,
m/s
humid.,
%
clouds,
%
prec.,
mm/h
press.,
hPa
HPBL,
m
28 february, sun
sun2823:00+2nnw51096100 0.2 1025911
02:00+1nw61096100 0.6 1026818
05:00+1nnw61092100 0.3 1027738
08:000nw6988100 0.3 1028716
11:00+1nw5984100 0.1 1027706
14:00+3wnw6107696 0.1 1026740
17:00+3wnw6117999 0.1 1024982
20:00+2wnw6129799 1.9 1023798
1 march, mon
mon123:00+2nnw51197100 1.9 1022630
02:00+2n4898100 3.1 1024533
05:00+1n51096100 0.3 1026648
08:00+1n4797100 0.4 1029480
11:00+2n3683100 0.1 1031584
14:00+4nnw347082 0.2 1032879
17:00+3nw357694 0.0 1032545
20:00+1w358962 0.0 1033106
2 march, tue
tue223:000w369147 0.0 1033136
02:00+1w4109161 0.0 1032303
05:00+1w5129478 0.0 1030347
08:00+2w6149176 0.0 1029449
11:00+6wnw7137431 0.0 1028688
14:00+7wnw7126720 0.0 1026926
17:00+6wnw613730 0.0 1025797
20:00+4nw614820 0.0 1026688
3 march, wed
wed323:00+2nw511918 0.0 1027509
02:00+1nw4109514 0.0 1029326
05:00+1nw489764 0.0 1029291
08:000nw369577 0.0 1030280
11:00+4nw356897 0.0 1030553
14:00+7nw344973 0.0 1029806
17:00+5nw225645 0.0 102754
20:00+2ssw016623 0.0 102722
4 march, thu
thu423:00+1ssw237412 0.0 102625
02:00+1ssw359235 0.0 102497
05:00+1sw37930 0.0 1022156
08:00+2sw4108810 0.0 1020276
11:00+7wsw596851 0.0 1017576
14:00+10wsw586049 0.0 1015945
17:00+8wsw496934 0.0 1013507
20:00+5wsw388237 0.0 1012157